カタログに戻る

CZ-4C R/B

運用中SSO
NORAD 65816·ROCKET BODY·🇨🇳 China

打ち上げ Sep 26, 2025 から Jiuquan Satellite Launch Center

Loading…

次のパス (今後24時間)

TLE

最新Source: Space-Track

元期: Sep 14, 2026, 07:04 UTC

1 65816U 25219B   26257.29496974  .00000315  00000-0  81031-4 0  9993
2 65816  98.6780 215.0476 0121493  48.8103 312.3493 14.53161412 51194

AllMySatでCZ-4C R/Bをリアルタイム追跡

Download on the App Store